Weather History for Omaha Offutt, NE

Change the Weather History Date:

Tuesday, December 31, 2013

  Actual Average Record
Temperature  
Mean Temperature 21 °F -  
Max Temperature 36 °F 32 °F 53 °F (1999)
Min Temperature 6 °F 14 °F -2 °F (1998)
Degree Days  
Heating Degree Days 44    
Moisture  
Dew Point 10 °F    
Average Humidity 75    
Maximum Humidity 92    
Minimum Humidity 50    
Precipitation  
Precipitation 0.00 in - - ()
Sea Level Pressure  
Sea Level Pressure 30.22 in    
Wind  
Wind Speed 6 mph (NE)    
Max Wind Speed 17 mph    
Max Gust Speed 29 mph    
Visibility 10 miles    
Events      
Averages and records for this station are not official NWS values.
T = Trace of Precipitation, MM = Missing Value Source: NWS Daily Summary

Daily Weather History Graph

Daily Weather History Graph

Search for Another Location

Airport:

Trip Planner

Search our weather history database for the weather conditions in past years. The results will help you decide how hot, cold, wet, or windy it might be!

Date:

Astronomy

Dec. 31, 2013 Rise Set
Actual Time 7:48 AM CST 5:04 PM CST
Civil Twilight 7:17 AM CST 5:36 PM CST
Nautical Twilight 6:43 AM CST 6:10 PM CST
Astronomical Twilight 6:09 AM CST 6:44 PM CST
Moon 6:42 AM CST (12/31) 4:42 PM CST (12/31)
Length of Visible Light 10h 18m
Length of Day
9h 16m
Waning Crescent, 1% of the Moon is Illuminated
Dec 31
Waning Crescent
Jan 1
New
Jan 7
First Quarter
Jan 15
Full
Jan 23
Last Quarter

Hourly Weather History & Observations

Time (CST) Temp. Windchill Dew Point Humidity Pressure Visibility Wind Dir Wind Speed Gust Speed Precip Events Conditions
12:58 AM 9.0 °F - 6.3 °F 89% 30.26 in 10.0 mi Calm Calm - N/A   Clear
1:58 AM 11.1 °F 3.1 °F 7.5 °F 85% 30.27 in 10.0 mi NW 4.6 mph - N/A   Clear
2:58 AM 7.9 °F - 4.6 °F 87% 30.26 in 10.0 mi WNW 2.3 mph - N/A   Clear
3:58 AM 9.1 °F -3.0 °F 5.7 °F 86% 30.29 in 10.0 mi WSW 8.1 mph - N/A   Clear
4:58 AM 9.3 °F - 5.2 °F 83% 30.32 in 10.0 mi Calm Calm - N/A   Clear
5:58 AM 6.6 °F -2.2 °F 3.9 °F 89% 30.31 in 10.0 mi NE 4.6 mph - N/A   Clear
6:58 AM 7.0 °F - 5.2 °F 92% 30.29 in 10.0 mi Calm Calm - N/A   Clear
7:58 AM 6.1 °F - 3.9 °F 91% 30.27 in 10.0 mi East 2.3 mph - N/A   Clear
8:58 AM 11.1 °F - 8.2 °F 88% 30.25 in 10.0 mi SE 2.3 mph - N/A   Clear
9:58 AM 17.2 °F 3.9 °F 12.7 °F 83% 30.22 in 10.0 mi SE 12.7 mph - N/A   Clear
10:58 AM 23.0 °F 12.4 °F 13.3 °F 66% 30.20 in 10.0 mi ESE 10.4 mph - N/A   Clear
11:58 AM 28.0 °F 17.5 °F 16.2 °F 61% 30.13 in 10.0 mi ESE 12.7 mph - N/A   Clear
12:58 PM 31.3 °F 25.6 °F 17.6 °F 57% 30.10 in 10.0 mi SE 5.8 mph - N/A   Clear
1:58 PM 34.5 °F 29.4 °F 19.0 °F 53% 30.08 in 10.0 mi ENE 5.8 mph - N/A   Clear
2:58 PM 36.3 °F 30.8 °F 19.4 °F 50% 30.07 in 10.0 mi NNE 6.9 mph - N/A   Clear
3:58 PM 35.2 °F 28.1 °F 19.4 °F 53% 30.11 in 10.0 mi NNE 9.2 mph - N/A   Clear
4:58 PM 29.8 °F 18.0 °F 16.3 °F 57% 30.16 in 10.0 mi NNE 17.3 mph 28.8 mph N/A   Clear
5:58 PM 16.7 °F 1.5 °F 9.0 °F 72% 30.21 in 10.0 mi NE 16.1 mph - N/A   Scattered Clouds
6:58 PM 15.1 °F 0.5 °F 7.3 °F 71% 30.22 in 10.0 mi NNE 13.8 mph - N/A   Overcast
7:58 PM 13.6 °F -0.7 °F 7.0 °F 75% 30.24 in 10.0 mi NNE 12.7 mph - N/A   Clear
8:58 PM 13.6 °F 2.5 °F 6.8 °F 74% 30.25 in 10.0 mi NNE 8.1 mph - N/A   Overcast
9:58 PM 13.3 °F 2.0 °F 7.0 °F 76% 30.24 in 10.0 mi NNE 8.1 mph - N/A   Partly Cloudy
10:58 PM 12.2 °F -1.0 °F 6.4 °F 78% 30.23 in 10.0 mi NNE 10.4 mph - N/A   Clear
11:58 PM 11.3 °F -2.9 °F 6.1 °F 80% 30.22 in 9.0 mi NNE 11.5 mph - N/A   Clear